Weather Roundup
Issued by NWS Springfield, MO

Home | Current Version | Previous Version | Text Only | Print | Product List | Glossary On
Versions: 1 2 3 4 5 6 7 8 9 10 11 12 13 14 15 16 17 18 19 20 21 22 23 24 25 26 27 28 29 30 31 32 33 34 35 36 37 38 39 40 41 42 43 44 45 46 47 48 49 50
000
NZUS99 KSGF 240907
HRRSGF

HOURLY WEATHER
NATIONAL WEATHER SERVICE SPRINGFIELD MO
400 AM CDT MON APR 24 2017

......SGF CWA......

CITY           SKY/WX    TMP DP  RH WIND       PRES   REMARKS
SPRINGFIELD    CLOUDY    42  38  85 SE3       29.95F
JOPLIN         CLEAR     39  39 100 S3        29.97R
WEST PLAINS    CLEAR     48  31  51 CALM      29.95S
ROLLA          CLEAR     42  33  70 CALM      29.94F
OSAGE BEACH    CLOUDY    39  37  92 CALM      29.96F
BRANSON        CLOUDY    41  39  93 CALM      29.96F

......SURROUNDING SGF CWA......

CITY           SKY/WX    TMP DP  RH WIND       PRES   REMARKS
CHANUTE        CLEAR     43  41  93 SE6       29.93F
PARSONS        CLEAR     42  40  92 E3        29.95F
COFFEYVILLE    CLEAR     42  41  96 CALM      29.94F
EMPORIA        CLEAR     45  40  82 S7        29.90F
GROVE OK       CLEAR     43  43 100 CALM      29.98R
ROGERS AR      CLOUDY    42  40  92 CALM      29.97S
SILOAM SPRINGS CLEAR     43  36  75 E3        29.97R
HARRISON AR    CLOUDY    43  37  79 W3        29.96F
NEAR YELLVILLE CLEAR     41  36  81 CALM      29.93S

......KANSAS AND MISSOURI......

CITY           SKY/WX    TMP DP  RH WIND       PRES   REMARKS
KANSAS CTY INT CLOUDY    45  36  70 SE8       29.92S
DOWNTOWN KC    CLOUDY    52  40  63 CALM      29.92F
COLUMBIA       CLOUDY    52  28  39 E5        29.95F
ST JOSEPH      CLOUDY    45  40  82 MISG      29.91F
ST LOUIS       CLOUDY    47  36  65 CALM      29.96S
SPIRIT OF STL  CLOUDY    38  37  97 CALM      29.95F
KIRKSVILLE     CLOUDY    45  31  58 S3        29.96S
WICHITA        CLEAR     47  40  76 S13       29.87F
TOPEKA         PTCLDY    49  40  71 E3        29.90F
OLATHE         CLOUDY    46  39  76 S3        29.93S

......TENNESSEE......

CITY           SKY/WX    TMP DP  RH WIND       PRES   REMARKS
MEMPHIS        CLEAR     49  46  90 NW3       29.86S
NASHVILLE      CLOUDY    54  52  93 NE8       29.81S

......ARKANSAS.......

CITY           SKY/WX    TMP DP  RH WIND       PRES   REMARKS
FAYETTEVILLE   CLEAR     38  38 100 CALM      29.97S
FT SMITH       CLEAR     47  43  86 CALM      29.96R
LITTLE ROCK    PTCLDY    46  45  96 W6        29.92R

......OKLAHOMA.......

CITY           SKY/WX    TMP DP  RH WIND       PRES   REMARKS
TULSA          CLEAR     45  42  89 SE3       29.93S
PONCA CITY     CLEAR     50  38  63 S5        29.92R
MCALESTER      CLEAR     42  40  92 CALM      29.96R
OKLAHOMA CITY  PTCLDY    43  38  82 S7        29.92S

......IOWA............

CITY           SKY/WX    TMP DP  RH WIND       PRES   REMARKS
DES MOINES     MOCLDY    50  33  52 S8        29.90F
QUAD CITIES    CLEAR     44  34  67 CALM      29.97S

......ILLINOIS........

CITY           SKY/WX    TMP DP  RH WIND       PRES   REMARKS
QUINCY         CLEAR     54  26  34 E7        29.96S
CHICAGO        PTCLDY    41  37  86 NE7       30.01S




USA.gov is the U.S. government's official web portal to all federal, state and local government web resources and services.